BBB077A MMMY-KLAX

Flight info

Callsign BBB077A
Flight time N/A
Altitude 34000
Route GRALA1B GRALA UT11 PPE J93 ASUTA DCT AMMOR OLAAA2
Aircraft A21N/M-SDE3FGHIRWY/LB1

Departure

Time 2026-04-17 11:44
Airport Monterrey International Airport (MMMY)

Arrival

Time N/A
Airport Los Angeles International Airport (KLAX)
Time Latitude Longitude Altitude Speed Heading
2026-04-17 11:44 25.82959 -100.19930 5183 ft 228 kts 300°
2026-04-17 11:44 25.83777 -100.21418 5875 ft 228 kts 299°
2026-04-17 11:44 25.84608 -100.22926 6535 ft 229 kts 298°
2026-04-17 11:45 25.85426 -100.24415 7141 ft 230 kts 298°
2026-04-17 11:45 25.86259 -100.25935 7737 ft 230 kts 299°
2026-04-17 11:45 25.87085 -100.27443 8311 ft 231 kts 299°
2026-04-17 11:45 25.87923 -100.28970 8871 ft 232 kts 300°
2026-04-17 11:46 25.88764 -100.30501 9413 ft 233 kts 300°
2026-04-17 11:46 25.89594 -100.32011 9986 ft 233 kts 300°
2026-04-17 11:46 25.90410 -100.33501 10501 ft 234 kts 300°
2026-04-17 11:46 25.91252 -100.35037 10973 ft 240 kts 299°
2026-04-17 11:47 25.92158 -100.36694 11195 ft 259 kts 300°
2026-04-17 11:47 25.93100 -100.38416 11787 ft 262 kts 300°
2026-04-17 11:47 25.94037 -100.40165 12349 ft 267 kts 297°
2026-04-17 11:47 25.94890 -100.42007 12772 ft 277 kts 295°
2026-04-17 11:48 25.95776 -100.43991 13091 ft 293 kts 294°
2026-04-17 11:48 25.96707 -100.46088 13410 ft 310 kts 294°
2026-04-17 11:48 25.97676 -100.48267 13678 ft 326 kts 295°
2026-04-17 11:48 25.98714 -100.50599 13956 ft 342 kts 295°
2026-04-17 11:49 25.99788 -100.53003 14200 ft 357 kts 294°
2026-04-17 11:49 26.00910 -100.55520 14468 ft 372 kts 295°
2026-04-17 11:49 26.02086 -100.58157 14719 ft 386 kts 295°
2026-04-17 11:49 26.03296 -100.60869 14970 ft 398 kts 295°
2026-04-17 11:50 26.04527 -100.63625 15432 ft 403 kts 294°
2026-04-17 11:50 26.05772 -100.66415 16031 ft 404 kts 294°
2026-04-17 11:50 26.07014 -100.69205 16612 ft 406 kts 294°
2026-04-17 11:50 26.08272 -100.72032 17166 ft 408 kts 294°
2026-04-17 11:51 26.09528 -100.74860 17715 ft 409 kts 294°
2026-04-17 11:51 26.10784 -100.77693 18208 ft 412 kts 293°
2026-04-17 11:51 26.12074 -100.80602 18667 ft 416 kts 293°
2026-04-17 11:51 26.13344 -100.83472 19121 ft 418 kts 293°
2026-04-17 11:52 26.14634 -100.86390 19540 ft 422 kts 293°
2026-04-17 11:52 26.15926 -100.89318 19937 ft 426 kts 293°
2026-04-17 11:52 26.17233 -100.92279 20343 ft 429 kts 293°
2026-04-17 11:52 26.18550 -100.95261 20737 ft 432 kts 293°
2026-04-17 11:53 26.19873 -100.98264 21115 ft 436 kts 293°
2026-04-17 11:53 26.21223 -101.01324 21511 ft 438 kts 293°
2026-04-17 11:53 26.22563 -101.04373 21863 ft 442 kts 293°
2026-04-17 11:53 26.23920 -101.07439 22215 ft 445 kts 294°
2026-04-17 11:54 26.25352 -101.10493 22584 ft 448 kts 294°
2026-04-17 11:54 26.26817 -101.13552 22980 ft 450 kts 294°
2026-04-17 11:54 26.28306 -101.16655 23358 ft 452 kts 294°
2026-04-17 11:54 26.29776 -101.19730 23731 ft 454 kts 294°
2026-04-17 11:55 26.31245 -101.22815 24141 ft 455 kts 294°
2026-04-17 11:55 26.32734 -101.25951 24691 ft 452 kts 294°
2026-04-17 11:55 26.34184 -101.29009 25251 ft 449 kts 294°
2026-04-17 11:55 26.35628 -101.32061 25755 ft 448 kts 294°
2026-04-17 11:56 26.37091 -101.35156 26205 ft 447 kts 294°
2026-04-17 11:56 26.38533 -101.38214 26697 ft 446 kts 293°
2026-04-17 11:56 26.39966 -101.41251 27189 ft 444 kts 293°
2026-04-17 11:56 26.41399 -101.44292 27637 ft 444 kts 293°
2026-04-17 11:57 26.42820 -101.47311 28104 ft 442 kts 293°
2026-04-17 11:57 26.44253 -101.50352 28593 ft 440 kts 293°
2026-04-17 11:57 26.45664 -101.53355 29053 ft 439 kts 292°
2026-04-17 11:57 26.47070 -101.56345 29527 ft 437 kts 293°
2026-04-17 11:58 26.48467 -101.59322 30006 ft 434 kts 292°
2026-04-17 11:58 26.49877 -101.62327 30481 ft 432 kts 292°
2026-04-17 11:58 26.51254 -101.65263 30946 ft 429 kts 292°
2026-04-17 11:58 26.52627 -101.68192 31435 ft 426 kts 291°
2026-04-17 11:59 26.53984 -101.71092 31896 ft 423 kts 291°
2026-04-17 11:59 26.55349 -101.74013 32315 ft 421 kts 291°
2026-04-17 11:59 26.56694 -101.76895 32688 ft 420 kts 291°
2026-04-17 11:59 26.58039 -101.79777 33012 ft 419 kts 291°
2026-04-17 12:00 26.59385 -101.82662 33330 ft 419 kts 291°
2026-04-17 12:00 26.60729 -101.85548 33634 ft 419 kts 291°
2026-04-17 12:00 26.62071 -101.88426 33935 ft 419 kts 291°
2026-04-17 12:00 26.63416 -101.91312 34031 ft 422 kts 291°
2026-04-17 12:01 26.66143 -101.97178 34017 ft 430 kts 291°
2026-04-17 12:01 26.68903 -102.03125 34009 ft 431 kts 291°
2026-04-17 12:02 26.71661 -102.09074 34018 ft 431 kts 291°
2026-04-17 12:02 26.74403 -102.15002 34046 ft 429 kts 291°
2026-04-17 12:03 26.77138 -102.20933 34082 ft 429 kts 291°
2026-04-17 12:03 26.79856 -102.26831 34124 ft 427 kts 290°
2026-04-17 12:04 26.82568 -102.32731 34144 ft 427 kts 291°
2026-04-17 12:04 26.85285 -102.38642 34149 ft 427 kts 290°
2026-04-17 12:05 26.87992 -102.44547 34137 ft 427 kts 291°
2026-04-17 12:05 26.90709 -102.50477 34130 ft 427 kts 290°
2026-04-17 12:06 26.93409 -102.56380 34115 ft 427 kts 290°
2026-04-17 12:06 26.96111 -102.62295 34094 ft 428 kts 290°
2026-04-17 12:07 26.98817 -102.68224 34080 ft 427 kts 290°
2026-04-17 12:07 27.01512 -102.74142 34056 ft 427 kts 290°
2026-04-17 12:08 27.04198 -102.80046 34049 ft 426 kts 290°
2026-04-17 12:08 27.06877 -102.85941 34057 ft 425 kts 290°
2026-04-17 12:09 27.09555 -102.91849 34058 ft 425 kts 290°
2026-04-17 12:09 27.12239 -102.97772 34060 ft 423 kts 290°
2026-04-17 12:10 27.14904 -103.03661 34048 ft 424 kts 290°
2026-04-17 12:10 27.17556 -103.09533 34047 ft 424 kts 289°
2026-04-17 12:11 27.20225 -103.15451 34053 ft 424 kts 289°
2026-04-17 12:12 27.24193 -103.24258 34054 ft 423 kts 289°
2026-04-17 12:12 27.26845 -103.30157 34049 ft 424 kts 289°
2026-04-17 12:13 27.29499 -103.36076 34069 ft 422 kts 289°
2026-04-17 12:13 27.32137 -103.41959 34080 ft 422 kts 289°
2026-04-17 12:14 27.34763 -103.47820 34090 ft 421 kts 289°
2026-04-17 12:14 27.37397 -103.53718 34097 ft 421 kts 289°
2026-04-17 12:15 27.40006 -103.59565 34118 ft 419 kts 289°
2026-04-17 12:15 27.42605 -103.65392 34121 ft 418 kts 288°
2026-04-17 12:16 27.45212 -103.71254 34130 ft 418 kts 288°
2026-04-17 12:16 27.47809 -103.77095 34113 ft 418 kts 288°
2026-04-17 12:17 27.50400 -103.82942 34103 ft 416 kts 288°
2026-04-17 12:17 27.52980 -103.88760 34114 ft 416 kts 288°
2026-04-17 12:18 27.55545 -103.94550 34111 ft 413 kts 288°
2026-04-17 12:18 27.58096 -104.00322 34119 ft 414 kts 288°
2026-04-17 12:19 27.60671 -104.06163 34120 ft 415 kts 288°
2026-04-17 12:19 27.63187 -104.11863 34127 ft 404 kts 288°
2026-04-17 12:20 27.65673 -104.17527 34142 ft 402 kts 288°
2026-04-17 12:20 27.68146 -104.23166 34141 ft 401 kts 288°
2026-04-17 12:21 27.70612 -104.28796 34146 ft 402 kts 288°
2026-04-17 12:21 27.73130 -104.34401 34155 ft 402 kts 288°
2026-04-17 12:22 27.75692 -104.39998 34154 ft 402 kts 288°
2026-04-17 12:22 27.78255 -104.45631 34152 ft 402 kts 288°
2026-04-17 12:23 27.80800 -104.51234 34154 ft 400 kts 288°
2026-04-17 12:23 27.83332 -104.56820 34148 ft 402 kts 288°
2026-04-17 12:24 27.85866 -104.62429 34149 ft 400 kts 288°
2026-04-17 12:24 27.88398 -104.68034 34151 ft 399 kts 288°
2026-04-17 12:25 27.90913 -104.73611 34150 ft 399 kts 287°
2026-04-17 12:25 27.93416 -104.79176 34154 ft 399 kts 287°
2026-04-17 12:26 27.95938 -104.84788 34149 ft 399 kts 287°
2026-04-17 12:26 27.98441 -104.90371 34135 ft 398 kts 287°
2026-04-17 12:27 28.00932 -104.95952 34119 ft 400 kts 287°
2026-04-17 12:27 28.03432 -105.01601 34108 ft 399 kts 287°
2026-04-17 12:28 28.05910 -105.07213 34093 ft 399 kts 287°
2026-04-17 12:28 28.08391 -105.12836 34099 ft 400 kts 287°
2026-04-17 12:29 28.10872 -105.18478 34096 ft 399 kts 287°
2026-04-17 12:29 28.13345 -105.24101 34104 ft 401 kts 287°
2026-04-17 12:30 28.15846 -105.29806 34113 ft 402 kts 287°
2026-04-17 12:30 28.18321 -105.35453 34106 ft 402 kts 287°
2026-04-17 12:31 28.20826 -105.41183 34110 ft 404 kts 287°
2026-04-17 12:31 28.23315 -105.46877 34096 ft 403 kts 287°
2026-04-17 12:32 28.25813 -105.52604 34089 ft 408 kts 287°
2026-04-17 12:32 28.28317 -105.58356 34093 ft 406 kts 287°
2026-04-17 12:33 28.30819 -105.64103 34098 ft 406 kts 287°
2026-04-17 12:33 28.33317 -105.69865 34107 ft 407 kts 287°
2026-04-17 12:34 28.35826 -105.75637 34111 ft 409 kts 286°
2026-04-17 12:34 28.38338 -105.81443 34119 ft 409 kts 286°
2026-04-17 12:35 28.40844 -105.87238 34113 ft 408 kts 287°
2026-04-17 12:35 28.43356 -105.93048 34127 ft 408 kts 287°
2026-04-17 12:37 28.53336 -106.16232 34138 ft 408 kts 287°
2026-04-17 12:38 28.55815 -106.22021 34152 ft 409 kts 286°
2026-04-17 12:38 28.58315 -106.27856 34157 ft 409 kts 287°
2026-04-17 12:39 28.60795 -106.33662 34167 ft 410 kts 287°
2026-04-17 12:39 28.63289 -106.39500 34191 ft 410 kts 287°
2026-04-17 12:40 28.65756 -106.45287 34198 ft 409 kts 287°
2026-04-17 12:40 28.68246 -106.51149 34222 ft 410 kts 287°
2026-04-17 12:41 28.70717 -106.56960 34227 ft 411 kts 286°
2026-04-17 12:41 28.73198 -106.62820 34228 ft 408 kts 287°
2026-04-17 12:42 28.75666 -106.68654 34233 ft 409 kts 286°
2026-04-17 12:42 28.78122 -106.74464 34229 ft 408 kts 286°
2026-04-17 12:43 28.80595 -106.80260 34223 ft 409 kts 286°
2026-04-17 12:43 28.83097 -106.86071 34227 ft 409 kts 287°
2026-04-17 12:44 28.85586 -106.91872 34219 ft 407 kts 287°
2026-04-17 12:44 28.88078 -106.97702 34217 ft 409 kts 286°
2026-04-17 12:45 28.90550 -107.03498 34222 ft 408 kts 286°
2026-04-17 12:45 28.93032 -107.09325 34230 ft 408 kts 286°
2026-04-17 12:46 28.95500 -107.15136 34240 ft 408 kts 285°
2026-04-17 12:46 28.97972 -107.20966 34251 ft 409 kts 286°
2026-04-17 12:47 29.00437 -107.26771 34259 ft 406 kts 286°
2026-04-17 12:47 29.02902 -107.32577 34253 ft 409 kts 286°
2026-04-17 12:48 29.05385 -107.38443 34233 ft 408 kts 286°
2026-04-17 12:48 29.07841 -107.44257 34215 ft 407 kts 286°
2026-04-17 12:49 29.10299 -107.50084 34201 ft 408 kts 286°
2026-04-17 12:49 29.12749 -107.55911 34197 ft 406 kts 285°
2026-04-17 12:50 29.15194 -107.61708 34195 ft 406 kts 285°
2026-04-17 12:50 29.17646 -107.67523 34203 ft 405 kts 285°
2026-04-17 12:51 29.20079 -107.73319 34191 ft 404 kts 285°
2026-04-17 12:51 29.22506 -107.79115 34194 ft 404 kts 285°
2026-04-17 12:52 29.24948 -107.84954 34197 ft 405 kts 284°
2026-04-17 12:52 29.27370 -107.90755 34206 ft 404 kts 285°
2026-04-17 12:53 29.29779 -107.96536 34211 ft 402 kts 285°
2026-04-17 12:53 29.32188 -108.02321 34212 ft 403 kts 284°
2026-04-17 12:54 29.34595 -108.08118 34206 ft 404 kts 285°
2026-04-17 12:54 29.37007 -108.13938 34192 ft 403 kts 285°
2026-04-17 12:55 29.39404 -108.19721 34186 ft 406 kts 284°
2026-04-17 12:55 29.41821 -108.25572 34171 ft 404 kts 285°
2026-04-17 12:56 29.44220 -108.31384 34167 ft 406 kts 284°
2026-04-17 12:56 29.46629 -108.37236 34155 ft 405 kts 285°
2026-04-17 12:57 29.49017 -108.43041 34152 ft 403 kts 284°
2026-04-17 12:57 29.51414 -108.48885 34150 ft 403 kts 284°
2026-04-17 12:58 29.53806 -108.54688 34147 ft 403 kts 285°
2026-04-17 12:58 29.56184 -108.60478 34149 ft 403 kts 285°
2026-04-17 12:59 29.58576 -108.66312 34146 ft 404 kts 284°
2026-04-17 12:59 29.60949 -108.72118 34147 ft 400 kts 284°
2026-04-17 13:00 29.63312 -108.77903 34143 ft 401 kts 284°
2026-04-17 13:00 29.65673 -108.83700 34135 ft 401 kts 284°
2026-04-17 13:01 29.68029 -108.89494 34120 ft 400 kts 283°
2026-04-17 13:01 29.70381 -108.95289 34103 ft 401 kts 283°
2026-04-17 13:02 29.72738 -109.01102 34084 ft 400 kts 283°
2026-04-17 13:02 29.75080 -109.06886 34076 ft 400 kts 283°
2026-04-17 13:03 29.77425 -109.12693 34071 ft 400 kts 283°
2026-04-17 13:03 29.79768 -109.18504 34079 ft 403 kts 284°
2026-04-17 13:04 29.82120 -109.24335 34062 ft 401 kts 284°
2026-04-17 13:04 29.84083 -109.29221 34056 ft 403 kts 284°
2026-04-17 13:06 29.91603 -109.47985 34054 ft 401 kts 284°
2026-04-17 13:06 29.93864 -109.53654 34058 ft 400 kts 284°
2026-04-17 13:07 29.95018 -109.56543 34053 ft 401 kts 284°
2026-04-17 13:07 29.98513 -109.65276 34051 ft 400 kts 283°
2026-04-17 13:08 30.00864 -109.71167 34037 ft 401 kts 283°
2026-04-17 13:08 30.03177 -109.76984 34030 ft 401 kts 284°
2026-04-17 13:09 30.05479 -109.82790 34032 ft 398 kts 284°
2026-04-17 13:09 30.07779 -109.88591 34033 ft 399 kts 283°
2026-04-17 13:10 30.10089 -109.94437 34032 ft 398 kts 284°
2026-04-17 13:10 30.12385 -110.00251 34042 ft 399 kts 284°
2026-04-17 13:11 30.14682 -110.06072 34045 ft 398 kts 284°
2026-04-17 13:11 30.16961 -110.11859 34035 ft 398 kts 284°
2026-04-17 13:12 30.19250 -110.17682 34030 ft 400 kts 284°
2026-04-17 13:12 30.22696 -110.26476 34028 ft 401 kts 284°
2026-04-17 13:13 30.24990 -110.32335 34023 ft 400 kts 285°
2026-04-17 13:13 30.27285 -110.38208 34028 ft 401 kts 284°
2026-04-17 13:14 30.29562 -110.44036 34032 ft 402 kts 285°
2026-04-17 13:14 30.31855 -110.49922 34042 ft 403 kts 284°
2026-04-17 13:15 30.34157 -110.55855 34042 ft 403 kts 285°
2026-04-17 13:15 30.36461 -110.61780 34032 ft 404 kts 284°
2026-04-17 13:16 30.38746 -110.67684 34041 ft 404 kts 284°
2026-04-17 13:16 30.41047 -110.73636 34034 ft 405 kts 285°
2026-04-17 13:17 30.43342 -110.79569 34034 ft 404 kts 284°
2026-04-17 13:17 30.45611 -110.85458 34033 ft 405 kts 285°
2026-04-17 13:18 30.47904 -110.91421 34019 ft 404 kts 285°
2026-04-17 13:18 30.50184 -110.97356 34013 ft 406 kts 284°
2026-04-17 13:19 30.52478 -111.03310 34008 ft 405 kts 285°
2026-04-17 13:19 30.54760 -111.09242 34005 ft 405 kts 285°
2026-04-17 13:20 30.57053 -111.15234 34008 ft 407 kts 285°
2026-04-17 13:20 30.59344 -111.21229 33999 ft 409 kts 285°
2026-04-17 13:21 30.61633 -111.27228 34005 ft 408 kts 285°
2026-04-17 13:21 30.63921 -111.33235 34002 ft 407 kts 286°
2026-04-17 13:22 30.66209 -111.39252 33998 ft 407 kts 286°
2026-04-17 13:22 30.68491 -111.45264 33999 ft 409 kts 285°
2026-04-17 13:23 30.70769 -111.51280 34000 ft 410 kts 286°
2026-04-17 13:23 30.73073 -111.57376 33995 ft 411 kts 286°
2026-04-17 13:24 30.75358 -111.63434 33981 ft 412 kts 287°
2026-04-17 13:24 30.77667 -111.69554 33980 ft 413 kts 286°
2026-04-17 13:25 30.79961 -111.75642 33970 ft 412 kts 286°
2026-04-17 13:25 30.82249 -111.81744 33970 ft 414 kts 286°
2026-04-17 13:26 30.84546 -111.87868 33959 ft 415 kts 286°
2026-04-17 13:26 30.86844 -111.94008 33956 ft 414 kts 287°
2026-04-17 13:27 30.89140 -112.00151 33948 ft 416 kts 287°
2026-04-17 13:27 30.91437 -112.06310 33955 ft 415 kts 287°
2026-04-17 13:28 30.93730 -112.12461 33953 ft 416 kts 287°
2026-04-17 13:28 30.96034 -112.18663 33960 ft 417 kts 287°
2026-04-17 13:29 30.98334 -112.24864 33964 ft 418 kts 287°
2026-04-17 13:29 31.00626 -112.31052 33965 ft 419 kts 288°
2026-04-17 13:30 31.02928 -112.37279 33957 ft 417 kts 288°
2026-04-17 13:30 31.05222 -112.43489 33941 ft 418 kts 288°
2026-04-17 13:31 31.07505 -112.49693 33952 ft 418 kts 288°
2026-04-17 13:31 31.09801 -112.55940 33937 ft 421 kts 288°
2026-04-17 13:32 31.12090 -112.62169 33938 ft 420 kts 289°
2026-04-17 13:32 31.14397 -112.68465 33931 ft 421 kts 288°
2026-04-17 13:33 31.16684 -112.74719 33941 ft 421 kts 288°
2026-04-17 13:33 31.18973 -112.80994 33926 ft 422 kts 289°
2026-04-17 13:34 31.21269 -112.87295 33932 ft 423 kts 289°
2026-04-17 13:34 31.23572 -112.93627 33928 ft 423 kts 289°
2026-04-17 13:35 31.25856 -112.99915 33929 ft 424 kts 289°
2026-04-17 13:35 31.28142 -113.06226 33925 ft 423 kts 289°
2026-04-17 13:36 31.30442 -113.12595 33924 ft 424 kts 289°
2026-04-17 13:36 31.32713 -113.18896 33923 ft 425 kts 290°
2026-04-17 13:37 31.35020 -113.25274 33920 ft 425 kts 291°
2026-04-17 13:37 31.37684 -113.31467 33916 ft 427 kts 297°
2026-04-17 13:38 31.40840 -113.37360 33915 ft 429 kts 300°
2026-04-17 13:38 31.44126 -113.43198 33912 ft 429 kts 301°
2026-04-17 13:39 31.47394 -113.49015 33917 ft 430 kts 301°
2026-04-17 13:39 31.50671 -113.54860 33914 ft 430 kts 301°
2026-04-17 13:40 31.53941 -113.60701 33912 ft 431 kts 301°
2026-04-17 13:40 31.57226 -113.66581 33914 ft 431 kts 301°
2026-04-17 13:41 31.60506 -113.72465 33909 ft 431 kts 301°
2026-04-17 13:41 31.63781 -113.78348 33917 ft 432 kts 301°
2026-04-17 13:42 31.67044 -113.84216 33915 ft 432 kts 301°
2026-04-17 13:42 31.70328 -113.90133 33902 ft 432 kts 301°
2026-04-17 13:43 31.73587 -113.96008 33908 ft 433 kts 301°
2026-04-17 13:43 31.76873 -114.01946 33907 ft 434 kts 301°
2026-04-17 13:44 31.80152 -114.07882 33909 ft 434 kts 302°
2026-04-17 13:44 31.83422 -114.13811 33899 ft 435 kts 302°
2026-04-17 13:45 31.86724 -114.19805 33904 ft 434 kts 302°
2026-04-17 13:45 31.89979 -114.25722 33900 ft 433 kts 302°
2026-04-17 13:46 31.93255 -114.31686 33905 ft 433 kts 302°
2026-04-17 13:46 31.96522 -114.37646 33915 ft 434 kts 302°
2026-04-17 13:47 31.99790 -114.43615 33902 ft 434 kts 302°
2026-04-17 13:47 32.03056 -114.49593 33908 ft 434 kts 302°
2026-04-17 13:48 32.06308 -114.55555 33911 ft 435 kts 302°
2026-04-17 13:48 32.09562 -114.61529 33909 ft 435 kts 303°
2026-04-17 13:49 32.12839 -114.67552 33914 ft 435 kts 302°
2026-04-17 13:49 32.16096 -114.73550 33911 ft 435 kts 302°
2026-04-17 13:50 32.19349 -114.79549 33917 ft 435 kts 302°
2026-04-17 13:50 32.22598 -114.85553 33916 ft 435 kts 302°
2026-04-17 13:51 32.25851 -114.91579 33928 ft 434 kts 302°
2026-04-17 13:51 32.29092 -114.97593 33933 ft 435 kts 302°
2026-04-17 13:52 32.32325 -115.03601 33931 ft 435 kts 302°
2026-04-17 13:52 32.35578 -115.09637 33932 ft 435 kts 303°
2026-04-17 13:53 32.38822 -115.15655 33935 ft 435 kts 303°
2026-04-17 13:53 32.42064 -115.21689 33938 ft 434 kts 303°
2026-04-17 13:54 32.46911 -115.30738 33938 ft 434 kts 303°
2026-04-17 13:55 32.51740 -115.39782 33942 ft 433 kts 303°
2026-04-17 13:56 32.58152 -115.51826 33943 ft 432 kts 302°
2026-04-17 13:56 32.61327 -115.57811 33939 ft 431 kts 302°
2026-04-17 13:57 32.64512 -115.63824 33945 ft 431 kts 302°
2026-04-17 13:58 32.69296 -115.72853 33938 ft 431 kts 302°
2026-04-17 13:58 32.73548 -115.80915 33943 ft 431 kts 302°